Location: Observatorio Las Palmas
(29.0667°N, 110.9333°W)
Time: 05:20:02
(UTC-07:00)

Skynet4D Del rocket - Visible Passes

Search period start: 29 January 2015 00:00
Search period end: 08 February 2015 00:00
Orbit: 763 x 1291 km, 26.9° (Epoch: 28 January)

Date Brightness Start Highest point End Pass type
(mag) Time Alt. Az. Time Alt. Az. Time Alt. Az.
29 Jan 6.7 03:22:42 12° E 03:22:42 12° E 03:23:01 10° E visible
29 Jan 4.2 05:08:20 56° SW 05:09:01 59° SSW 05:15:09 10° ESE visible
30 Jan 5.7 04:01:33 28° ESE 04:01:33 28° ESE 04:04:23 10° ESE visible
30 Jan 4.7 05:47:11 26° WSW 05:50:18 39° SSW 05:55:59 10° SE visible
31 Jan 4.7 04:40:25 48° SSE 04:40:25 48° SSE 04:45:32 10° ESE visible
31 Jan 5.4 06:26:12 10° WSW 06:31:25 23° SSW 06:36:03 10° SSE visible
01 Feb 6.5 03:33:40 15° ESE 03:33:40 15° ESE 03:34:45 10° ESE visible
01 Feb 4.9 05:19:18 34° SW 05:20:24 36° SSW 05:26:14 10° SE visible
01 Feb 6.4 20:32:32 10° S 20:34:24 14° S 20:34:24 14° S visible
02 Feb 5.6 04:12:34 29° SE 04:12:34 29° SE 04:15:50 10° SE visible
02 Feb 5.6 05:58:12 15° WSW 06:01:30 20° SSW 06:06:01 10° SSE visible
02 Feb 6.4 21:11:37 10° SSW 21:13:23 16° SSW 21:13:23 16° SSW visible
03 Feb 5.3 04:51:31 31° S 04:51:31 31° S 04:56:22 10° SE visible
03 Feb 5.9 20:01:52 10° SSW 20:06:43 19° SSE 20:06:43 19° SSE visible
03 Feb 6.8 21:52:00 10° SW 21:52:22 12° SW 21:52:22 12° SW visible
04 Feb 6.4 03:44:50 16° SE 03:44:50 16° SE 03:46:01 10° SE visible
04 Feb 5.7 05:30:28 17° SW 05:31:31 18° SSW 05:35:49 10° S visible
04 Feb 6.3 18:54:37 10° SSE 18:55:40 10° SSE 18:57:10 10° SE visible
04 Feb 5.7 20:41:24 10° SW 20:45:43 28° S 20:45:43 28° S visible
05 Feb 6.0 04:23:49 20° SSE 04:23:49 20° SSE 04:26:22 10° SSE visible
05 Feb 5.7 19:31:28 10° SSW 19:36:48 22° SSE 19:39:04 20° SE visible
05 Feb 6.1 21:21:57 10° SW 21:24:42 24° SW 21:24:42 24° SW visible
06 Feb 6.1 05:02:48 15° SSW 05:02:48 15° SSW 05:05:23 10° S visible
06 Feb 5.1 20:11:19 10° SW 20:17:59 38° SSE 20:18:03 38° SSE visible
06 Feb 6.8 22:03:05 10° WSW 22:03:41 13° WSW 22:03:41 13° WSW visible
07 Feb 6.7 03:56:10 10° SSE 03:56:10 10° SSE 03:56:13 10° SSE visible
07 Feb 5.6 19:01:17 10° SSW 19:06:44 25° SSE 19:11:22 15° ESE visible
07 Feb 5.2 20:52:02 10° WSW 20:57:00 42° SSW 20:57:00 42° SSW visible
